Flag for Canada Weather past 2 weeks in Regina, Saskatchewan, Canada

16 °F

Light snow. Overcast.

Feels Like: -2 °F
Forecast: 10 / 25 °F
Wind: 22 mph from North

Location: Regina Weather Station

Current Time: Nov 25, 2015 at 7:17:19 AM

Latest Report: Nov 25, 2015 at 6:00 AM

Visibility: 15 mi

Pressure: 30.24 "Hg (28.07 "Hg at 577m altitude)

Humidity: 86%

Dew point: 12 °F

Location of ReginaLocation

Historic Weather in Regina — Graph


Regina temperature yesterday

Maximum temperature yesterday: 32 °F (at 4:00 AM)
Minimum temperature yesterday: 28 °F (at 9:00 AM)
Average temperature yesterday: 31 °F

Past Weeks' High & Low Weather Summary

High55 °F (Nov 15, 3:00 PM)100% (Nov 10, 6:00 AM)30.44 "Hg (Nov 10, 6:00 AM)
Low3 °F (Nov 20, 3:00 AM)37% (Nov 17, 2:00 PM)28.96 "Hg (Nov 18, 5:00 AM)
Average29 °F79%29.87 "Hg
* Reported Nov 10 6:00 AM — Nov 25 6:00 AM, Regina, Weather by CustomWeather, © 2015

Note: Actual official high and low records may vary slightly from our data, if they occured in-between our weather recording intervals... More about our weather records


Regina weather history for previous 24 hours

Time TempWeatherWind HumidityBarometerVisibility
6:00 AM
Wed, Nov 25
16 °FLight snow. Overcast.22 mph86%30.24 "Hg15 mi
5:00 AM18 °FLight snow. Overcast.21 mph86%30.20 "Hg15 mi
4:00 AM19 °FOvercast.20 mph86%30.16 "Hg15 mi
3:00 AM21 °FLight snow. Overcast.20 mph93%30.13 "Hg15 mi
2:00 AM25 °FLight snow. Overcast.20 mph86%30.09 "Hg5 mi
1:00 AM27 °FLight snow. Overcast.15 mph86%30.06 "Hg15 mi
12:00 AM27 °FLight snow. Mostly cloudy.15 mph93%30.04 "Hg15 mi
11:00 PM
Tue, Nov 24
28 °FLight snow. Mostly cloudy.10 mph86%30.02 "Hg15 mi
10:47 PM28 °FLight snow. Mostly cloudy.8 mph86%30.01 "Hg15 mi
10:00 PM28 °FMostly cloudy.9 mph93%29.98 "Hg10 mi
9:00 PM30 °FMostly cloudy.13 mph86%29.97 "Hg15 mi
8:00 PM30 °FOvercast.3 mph86%29.95 "Hg15 mi
7:00 PM32 °FOvercast.5 mph80%29.95 "Hg15 mi
6:00 PM32 °FOvercast.2 mph75%29.93 "Hg15 mi
5:00 PM32 °FPartly sunny.3 mph80%29.91 "Hg15 mi
4:00 PM32 °FOvercast.6 mph75%29.89 "Hg15 mi
3:00 PM32 °FOvercast.10 mph75%29.88 "Hg15 mi
2:00 PM32 °FOvercast.12 mph75%29.89 "Hg15 mi
1:00 PM32 °FOvercast.17 mph75%29.88 "Hg15 mi
12:00 PM32 °FOvercast.18 mph75%29.90 "Hg15 mi
11:00 AM32 °FPartly sunny.22 mph75%29.91 "Hg15 mi
10:00 AM30 °FPartly sunny.20 mph80%29.91 "Hg15 mi
9:00 AM28 °FMostly cloudy.17 mph86%29.91 "Hg15 mi
8:00 AM30 °FPassing clouds.21 mph80%29.90 "Hg15 mi
7:00 AM30 °FOvercast.17 mph80%29.90 "Hg15 mi
Weather by CustomWeather, © 2015

See weather overviewHow to use our weather pages